Previsão horária em Abay (Aralskiy rayon)

Hoje, 14 Abril, Quarta-feira

Tempo Temperatura Precipitação Vento Pressão Humidade
00:00 +15°C° 0 mm 8 m/s 763 mmHg 51%
01:00 +13°C° 0 mm 8 m/s 763 mmHg 64%
02:00 +12°C° 0 mm 7 m/s 763 mmHg 66%
03:00 +11°C° 0 mm 7 m/s 763 mmHg 69%
04:00 +11°C° 0 mm 7 m/s 763 mmHg 70%
05:00 +11°C° 0 mm 7 m/s 763 mmHg 66%
06:00 +11°C° 0 mm 7 m/s 763 mmHg 62%
07:00 +11°C° 0 mm 7 m/s 763 mmHg 58%
08:00 +14°C° 0 mm 7 m/s 763 mmHg 50%
09:00 +16°C° 0 mm 7 m/s 763 mmHg 42%
10:00 +18°C° 0 mm 8 m/s 763 mmHg 33%
11:00 +21°C° 0 mm 8 m/s 763 mmHg 28%
12:00 +22°C° 0 mm 8 m/s 763 mmHg 23%
13:00 +23°C° 0 mm 8 m/s 762 mmHg 19%
14:00 +23°C° 0 mm 9 m/s 762 mmHg 16%
15:00 +23°C° 0 mm 9 m/s 761 mmHg 13%
16:00 +23°C° 0 mm 9 m/s 761 mmHg 10%
17:00 +22°C° 0 mm 8 m/s 761 mmHg 13%
18:00 +21°C° 0 mm 7 m/s 761 mmHg 15%
19:00 +20°C° 0 mm 6 m/s 761 mmHg 17%
20:00 +19°C° 0 mm 6 m/s 761 mmHg 20%
21:00 +17°C° 0 mm 5 m/s 761 mmHg 23%
22:00 +16°C° 0 mm 5 m/s 761 mmHg 26%
23:00 +16°C° 0 mm 5 m/s 761 mmHg 29%

Amanhã, 15 Abril, Quinta-feira

Tempo Temperatura Precipitação Vento Pressão Humidade
00:00 +15°C° 0 mm 6 m/s 760 mmHg 31%
01:00 +14°C° 0 mm 6 m/s 760 mmHg 34%
02:00 +13°C° 0 mm 6 m/s 760 mmHg 37%
03:00 +13°C° 0 mm 5 m/s 760 mmHg 41%
04:00 +12°C° 0 mm 5 m/s 760 mmHg 44%
05:00 +11°C° 0 mm 6 m/s 760 mmHg 43%
06:00 +13°C° 0 mm 6 m/s 760 mmHg 43%
07:00 +13°C° 0 mm 6 m/s 760 mmHg 43%
08:00 +15°C° 0 mm 6 m/s 760 mmHg 36%
09:00 +17°C° 0 mm 7 m/s 760 mmHg 29%
10:00 +20°C° 0 mm 7 m/s 759 mmHg 23%
11:00 +21°C° 0 mm 7 m/s 759 mmHg 20%
12:00 +22°C° 0 mm 7 m/s 759 mmHg 18%
13:00 +23°C° 0 mm 7 m/s 758 mmHg 15%
14:00 +24°C° 0 mm 7 m/s 758 mmHg 14%
15:00 +24°C° 0 mm 7 m/s 757 mmHg 14%
16:00 +24°C° 0 mm 7 m/s 757 mmHg 13%
17:00 +23°C° 0 mm 6 m/s 757 mmHg 15%
18:00 +22°C° 0 mm 5 m/s 756 mmHg 17%
19:00 +21°C° 0 mm 4 m/s 756 mmHg 18%
20:00 +20°C° 0 mm 4 m/s 756 mmHg 21%
21:00 +19°C° 0 mm 3 m/s 756 mmHg 23%
22:00 +18°C° 0 mm 3 m/s 756 mmHg 25%
23:00 +18°C° 0 mm 3 m/s 756 mmHg 27%

Depois de amanhã, 16 Abril, Sexta-feira

Tempo Temperatura Precipitação Vento Pressão Humidade
00:00 +17°C° 0 mm 3 m/s 755 mmHg 29%
01:00 +16°C° 0 mm 3 m/s 755 mmHg 30%
02:00 +15°C° 0 mm 4 m/s 755 mmHg 33%
03:00 +14°C° 0 mm 4 m/s 755 mmHg 35%
04:00 +14°C° 0 mm 4 m/s 755 mmHg 37%
05:00 +14°C° 0 mm 4 m/s 755 mmHg 37%
06:00 +14°C° 0 mm 4 m/s 755 mmHg 38%
07:00 +15°C° 0 mm 4 m/s 755 mmHg 38%
08:00 +17°C° 0 mm 4 m/s 755 mmHg 34%
09:00 +19°C° 0 mm 4 m/s 755 mmHg 30%
10:00 +21°C° 0 mm 4 m/s 755 mmHg 25%
11:00 +22°C° 0 mm 3 m/s 755 mmHg 23%
12:00 +24°C° 0 mm 3 m/s 755 mmHg 20%
13:00 +25°C° 0 mm 2 m/s 755 mmHg 18%
14:00 +25°C° 0 mm 3 m/s 755 mmHg 17%
15:00 +26°C° 0 mm 3 m/s 755 mmHg 16%
16:00 +26°C° 0 mm 3 m/s 755 mmHg 15%
17:00 +25°C° 0 mm 3 m/s 755 mmHg 17%
18:00 +24°C° 0 mm 3 m/s 755 mmHg 18%
19:00 +22°C° 0 mm 3 m/s 755 mmHg 20%
20:00 +21°C° 0 mm 3 m/s 755 mmHg 22%
21:00 +20°C° 0 mm 3 m/s 755 mmHg 24%
22:00 +20°C° 0 mm 3 m/s 755 mmHg 26%
23:00 +19°C° 0 mm 3 m/s 755 mmHg 30%

17 Abril, Sábado

Tempo Temperatura Precipitação Vento Pressão Humidade
00:00 +18°C° 0 mm 3 m/s 755 mmHg 33%
01:00 +17°C° 0 mm 3 m/s 755 mmHg 37%
02:00 +17°C° 0 mm 3 m/s 755 mmHg 39%
03:00 +16°C° 0 mm 3 m/s 755 mmHg 41%
04:00 +16°C° 0 mm 3 m/s 756 mmHg 42%
05:00 +16°C° 0 mm 2 m/s 756 mmHg 42%
06:00 +17°C° 0 mm 2 m/s 756 mmHg 41%
07:00 +17°C° 0 mm 2 m/s 756 mmHg 40%
08:00 +19°C° 0 mm 2 m/s 756 mmHg 35%
09:00 +20°C° 0 mm 2 m/s 757 mmHg 31%
10:00 +23°C° 0 mm 2 m/s 757 mmHg 27%
11:00 +24°C° 0 mm 2 m/s 757 mmHg 24%
12:00 +25°C° 0 mm 2 m/s 756 mmHg 21%
13:00 +25°C° 0 mm 1 m/s 756 mmHg 18%
14:00 +26°C° 0 mm 2 m/s 756 mmHg 17%
15:00 +26°C° 0 mm 2 m/s 756 mmHg 17%
16:00 +26°C° 0 mm 2 m/s 756 mmHg 17%
17:00 +25°C° 0 mm 3 m/s 756 mmHg 18%
18:00 +24°C° 0 mm 3 m/s 756 mmHg 19%
19:00 +23°C° 0 mm 4 m/s 756 mmHg 21%
20:00 +22°C° 0 mm 4 m/s 756 mmHg 22%
21:00 +21°C° 0 mm 4 m/s 756 mmHg 24%
22:00 +20°C° 0 mm 4 m/s 756 mmHg 26%
23:00 +20°C° 0 mm 4 m/s 756 mmHg 29%

18 Abril, Domingo

Tempo Temperatura Precipitação Vento Pressão Humidade
00:00 +19°C° 0 mm 4 m/s 755 mmHg 31%
01:00 +18°C° 0 mm 4 m/s 755 mmHg 34%
02:00 +18°C° 0 mm 4 m/s 755 mmHg 39%
03:00 +17°C° 0 mm 4 m/s 755 mmHg 43%
04:00 +17°C° 0 mm 4 m/s 755 mmHg 48%
05:00 +17°C° 0.2 mm 4 m/s 755 mmHg 47%
06:00 +17°C° 0.2 mm 4 m/s 755 mmHg 47%
07:00 +18°C° 0.2 mm 4 m/s 755 mmHg 46%
08:00 +19°C° 0 mm 5 m/s 755 mmHg 41%
09:00 +21°C° 0 mm 5 m/s 755 mmHg 35%
10:00 +22°C° 0 mm 6 m/s 755 mmHg 30%
11:00 +22°C° 0 mm 8 m/s 755 mmHg 30%
12:00 +23°C° 0 mm 9 m/s 755 mmHg 30%
13:00 +23°C° 0 mm 11 m/s 755 mmHg 30%
14:00 +23°C° 0 mm 10 m/s 754 mmHg 30%
15:00 +22°C° 0 mm 9 m/s 754 mmHg 31%
16:00 +22°C° 0 mm 8 m/s 754 mmHg 32%
17:00 +22°C° 0 mm 7 m/s 754 mmHg 34%
18:00 +21°C° 0 mm 6 m/s 754 mmHg 36%
19:00 +21°C° 0 mm 6 m/s 754 mmHg 38%
20:00 +20°C° 0 mm 5 m/s 753 mmHg 41%
21:00 +19°C° 0 mm 4 m/s 753 mmHg 45%
22:00 +19°C° 0 mm 3 m/s 753 mmHg 48%
23:00 +18°C° 0 mm 3 m/s 753 mmHg 49%

19 Abril, Segunda-feira

Tempo Temperatura Precipitação Vento Pressão Humidade
00:00 +18°C° 0 mm 3 m/s 752 mmHg 50%
01:00 +18°C° 0 mm 3 m/s 752 mmHg 51%
02:00 +15°C° 0 mm 5 m/s 752 mmHg 57%
03:00 +12°C° 0 mm 7 m/s 753 mmHg 62%
04:00 +11°C° 0 mm 9 m/s 753 mmHg 68%
05:00 +8°C° 0 mm 10 m/s 754 mmHg 67%
06:00 +7°C° 0 mm 11 m/s 755 mmHg 67%
07:00 +4°C° 0 mm 12 m/s 755 mmHg 67%
08:00 +4°C° 0 mm 12 m/s 756 mmHg 62%
09:00 +4°C° 0 mm 12 m/s 756 mmHg 56%
10:00 +4°C° 0 mm 12 m/s 756 mmHg 51%
11:00 +5°C° 0 mm 12 m/s 756 mmHg 44%
12:00 +7°C° 0 mm 12 m/s 756 mmHg 37%
13:00 +9°C° 0 mm 12 m/s 757 mmHg 30%
14:00 +9°C° 0 mm 12 m/s 757 mmHg 28%
15:00 +9°C° 0 mm 12 m/s 757 mmHg 27%
16:00 +8°C° 0 mm 12 m/s 757 mmHg 26%
17:00 +7°C° 0 mm 12 m/s 757 mmHg 25%
18:00 +5°C° 0 mm 12 m/s 758 mmHg 25%
19:00 +4°C° 0 mm 12 m/s 758 mmHg 25%
20:00 +3°C° 0 mm 12 m/s 758 mmHg 25%
21:00 +2°C° 0 mm 12 m/s 759 mmHg 26%
22:00 0°C° 0 mm 13 m/s 759 mmHg 26%
23:00 -1°C° 0 mm 13 m/s 759 mmHg 28%
Mostrar mais

Necessitamos do seu Consentimento

A Meteoprog e os seus Fornecedores de Serviços podem armazenar e aceder a dados pessoais como cookies, identificadores do dispositivo ou outras tecnologias semelhantes existentes no seu dispositivo e processar estes dados para personalizar conteúdos e anúncios, assim como funcionalidades nas redes sociais e análise de tráfego.

  • Armazenar e/ou aceder a informações no seu dispositivo

    Os cookies, identificadores do dispositivo ou outras informações podem ser armazenados ou acedidos no seu dispositivo, para os fins acima indicados.

  • Anúncios e conteúdos personalizados, medição de anúncios e conteúdos, dados sobre o público-alvo e desenvolvimento de produtos

    Os anúncios e os conteúdos podem ser personalizados com base num perfil. Podem ser adicionados dados adicionais para uma maior personalização dos anúncios e dos conteúdos. A eficácia dos anúncios e dos conteúdos pode ser medida. Podem ser obtidas informações sobre o público que visualizou os anúncios e os conteúdos. Estes dados podem ser usados para desenvolver ou melhorar sistemas, softwares ou a experiência do utilizador.

Ao clicar em "Eu concordo”, permitirá o uso de cookies, identificadores do dispositivo e web beacons mencionados ou outras tecnologias semelhantes. As configurações do navegador do seu dispositivo podem ser alteradas.

Para certos fins, podem ser invocados interesses legítimos ao invés de consentimento. Pode ler mais informação sobre este assunto na nossa Política de Privacidade e Cookies.